KK7ISX Weather Reports


time (UTC)temp
C
wind
direction
speed
KPH
gust
KPH
rain 1hr
cm
rain 24hr
cm
rain mn
cm
humidity
%
barometer
mb
20260505190201 21 317 9.7 12.9 0.00 0.00 0.00 38 1010.6
20260505185658 20 335 9.7 9.7 0.00 0.00 0.00 39 1010.7
20260505185155 20 259 6.4 6.4 0.00 0.00 0.00 38 1010.7
20260505184651 21 287 8.0 9.7 0.00 0.00 0.00 39 1010.8
20260505184148 21 293 6.4 6.4 0.00 0.00 0.00 38 1010.7
20260505183645 21 242 1.6 4.8 0.00 0.00 0.00 37 1010.9
20260505183143 20 286 12.9 14.5 0.00 0.00 0.00 38 1011.0
20260505182638 20 340 6.4 9.7 0.00 0.00 0.00 39 1011.0
20260505182136 21 311 6.4 6.4 0.00 0.00 0.00 39 1010.9
20260505181632 21 290 8.0 9.7 0.00 0.00 0.00 38 1011.0
20260505181130 21 262 4.8 4.8 0.00 0.00 0.00 38 1010.8
20260505180625 21 235 1.6 1.6 0.00 0.00 0.00 37 1010.9
20260505180123 20 249 1.6 1.6 0.00 0.00 0.00 40 1010.9
20260505175619 20 62 0.0 0.0 0.00 0.00 0.00 38 1011.1
20260505175116 20 336 12.9 14.5 0.00 0.00 0.00 40 1010.9
20260505174612 20 297 3.2 4.8 0.00 0.00 0.00 40 1011.0
20260505174108 20 301 14.5 14.5 0.00 0.00 0.00 41 1010.8
20260505173605 20 219 9.7 11.3 0.00 0.00 0.00 40 1011.0
20260505173102 20 204 0.0 0.0 0.00 0.00 0.00 40 1010.9
20260505172600 20 346 6.4 6.4 0.00 0.00 0.00 39 1011.0
20260505172056 21 273 6.4 9.7 0.00 0.00 0.00 38 1011.0
20260505171551 20 173 0.0 0.0 0.00 0.00 0.00 40 1011.1
20260505171048 20 213 0.0 1.6 0.00 0.00 0.00 39 1011.0
20260505170544 20 195 1.6 1.6 0.00 0.00 0.00 40 1011.0
20260505170041 20 183 1.6 3.2 0.00 0.00 0.00 40 1010.9
20260505165536 20 264 8.0 9.7 0.00 0.00 0.00 40 1010.7
20260505165032 20 252 3.2 4.8 0.00 0.00 0.00 40 1010.8
20260505164528 18 266 1.6 1.6 0.00 0.00 0.00 40 1010.8
20260505164026 18 259 3.2 3.2 0.00 0.00 0.00 41 1010.7
20260505163525 19 220 8.0 9.7 0.00 0.00 0.00 42 1010.8
20260505163021 18 215 3.2 3.2 0.00 0.00 0.00 42 1011.0
20260505162515 18 227 11.3 12.9 0.00 0.00 0.00 42 1010.6
20260505162011 18 197 6.4 9.7 0.00 0.00 0.00 42 1011.0
20260505161508 18 142 6.4 6.4 0.00 0.00 0.00 41 1010.8
20260505161006 18 206 9.7 11.3 0.00 0.00 0.00 42 1010.8
20260505160503 18 183 4.8 9.7 0.00 0.00 0.00 42 1010.6
20260505152940 17 219 6.4 6.4 0.00 0.00 0.00 50 1010.7
20260505152438 16 211 6.4 6.4 0.00 0.00 0.00 52 1010.5
20260505151937 17 163 3.2 3.2 0.00 0.00 0.00 52 1010.6
20260505151433 16 156 3.2 3.2 0.00 0.00 0.00 52 1010.6
20260505150931 16 198 6.4 6.4 0.00 0.00 0.00 52 1010.5
20260505150428 16 198 4.8 4.8 0.00 0.00 0.00 51 1010.6
20260505140358 11 194 0.0 0.0 0.00 0.00 0.00 70 1009.9
20260505124811 10 190 0.0 1.6 0.00 0.00 0.00 70 1008.3
20260505124308 10 193 0.0 0.0 0.00 0.00 0.00 71 1008.2
20260505123804 10 187 0.0 0.0 0.00 0.00 0.00 70 1008.3
20260505123300 10 189 0.0 1.6 0.00 0.00 0.00 70 1008.3
20260505122757 10 180 1.6 1.6 0.00 0.00 0.00 69 1008.0
20260505122255 10 200 0.0 0.0 0.00 0.00 0.00 69 1008.1
20260505121751 10 204 0.0 0.0 0.00 0.00 0.00 69 1007.9
20260505121248 10 187 3.2 3.2 0.00 0.00 0.00 68 1008.0
20260505120744 10 199 1.6 3.2 0.00 0.00 0.00 68 1007.8
20260505120240 10 181 1.6 1.6 0.00 0.00 0.00 67 1007.7
20260505115739 10 148 3.2 3.2 0.00 0.00 0.00 67 1007.7
20260505115237 11 189 1.6 1.6 0.00 0.00 0.00 68 1007.8
20260505114734 11 169 1.6 1.6 0.00 0.00 0.00 67 1007.4
20260505114230 11 196 0.0 0.0 0.00 0.00 0.00 67 1007.6
20260505113727 11 201 1.6 1.6 0.00 0.00 0.00 66 1007.2
20260505113223 11 189 3.2 3.2 0.00 0.00 0.00 66 1007.3
20260505112719 11 196 1.6 1.6 0.00 0.00 0.00 65 1007.0
20260505112218 11 207 3.2 3.2 0.00 0.00 0.00 65 1007.1
20260505111717 11 182 0.0 1.6 0.00 0.00 0.00 65 1007.3
20260505111213 11 195 1.6 1.6 0.00 0.00 0.00 65 1007.2
20260505110709 11 219 6.4 6.4 0.00 0.00 0.00 65 1006.8
20260505110207 11 201 4.8 4.8 0.00 0.00 0.00 65 1006.9
20260505102142 13 193 0.0 1.6 0.00 0.00 0.00 59 1006.4
20260505101641 14 205 0.0 0.0 0.00 0.00 0.00 55 1006.4
20260505101137 14 276 3.2 4.8 0.00 0.00 0.00 53 1006.0
20260505100633 14 218 1.6 1.6 0.00 0.00 0.00 54 1005.9
20260505100130 14 243 0.0 1.6 0.00 0.00 0.00 54 1005.9
20260505095626 14 274 4.8 4.8 0.00 0.00 0.00 53 1005.9
20260505095123 14 282 4.8 4.8 0.00 0.00 0.00 53 1005.9
20260505094620 15 275 4.8 4.8 0.00 0.00 0.00 52 1005.7
20260505094116 15 272 3.2 4.8 0.00 0.00 0.00 52 1005.8
20260505093612 15 293 8.0 9.7 0.00 0.00 0.00 53 1005.6
20260505093110 15 306 12.9 14.5 0.00 0.00 0.00 51 1005.8
20260505092607 15 299 4.8 4.8 0.00 0.00 0.00 51 1005.7
20260505092106 15 239 1.6 1.6 0.00 0.00 0.00 51 1005.5
20260505091602 15 225 3.2 3.2 0.00 0.00 0.00 51 1005.6
20260505091100 15 246 1.6 3.2 0.00 0.00 0.00 51 1005.5
20260505090558 15 294 6.4 6.4 0.00 0.00 0.00 51 1005.3
20260505090055 15 298 9.7 9.7 0.00 0.00 0.00 51 1005.1
20260505085553 15 291 9.7 11.3 0.00 0.00 0.00 50 1005.1
20260505085051 15 301 8.0 9.7 0.00 0.00 0.00 50 1005.1
20260505084549 15 294 6.4 6.4 0.00 0.00 0.00 51 1005.2
20260505084047 15 280 9.7 11.3 0.00 0.00 0.00 50 1005.1
20260505083543 15 288 8.0 11.3 0.00 0.00 0.00 50 1005.2
20260505083040 16 299 6.4 6.4 0.00 0.00 0.00 50 1005.0
20260505082536 15 293 8.0 9.7 0.00 0.00 0.00 50 1004.8
20260505082033 15 264 11.3 12.9 0.00 0.00 0.00 51 1005.0
20260505081529 15 313 9.7 9.7 0.00 0.00 0.00 51 1004.7
20260505081027 15 309 8.0 9.7 0.00 0.00 0.00 51 1005.0
20260505080522 15 307 8.0 9.7 0.00 0.00 0.00 51 1004.8
20260505080020 15 291 8.0 9.7 0.00 0.00 0.00 51 1004.8
20260505075515 15 268 8.0 9.7 0.00 0.00 0.00 51 1004.7
20260505075013 15 292 8.0 9.7 0.00 0.00 0.00 51 1004.8
20260505074510 16 275 8.0 9.7 0.00 0.00 0.00 50 1004.7
20260505074007 16 303 11.3 12.9 0.00 0.00 0.00 49 1004.7
20260505073504 16 304 12.9 16.1 0.00 0.00 0.00 48 1004.8
20260505073002 16 325 9.7 11.3 0.00 0.00 0.00 48 1004.7
20260505072457 16 316 11.3 12.9 0.00 0.00 0.00 48 1004.6
20260505071954 16 312 8.0 9.7 0.00 0.00 0.00 48 1004.8
20260505071450 16 301 9.7 11.3 0.00 0.00 0.00 48 1004.7
20260505070948 17 308 9.7 11.3 0.00 0.00 0.00 47 1004.7
20260505070444 17 308 9.7 11.3 0.00 0.00 0.00 45 1004.6
20260505065940 17 304 6.4 9.7 0.00 0.00 0.00 45 1004.6
20260505065437 17 315 9.7 11.3 0.00 0.00 0.00 44 1004.5
20260505064933 17 300 11.3 14.5 0.00 0.00 0.00 44 1004.5
20260505064431 17 296 8.0 9.7 0.00 0.00 0.00 44 1004.5
20260505063929 17 317 9.7 12.9 0.00 0.00 0.00 44 1004.4
20260505063425 17 311 8.0 9.7 0.00 0.00 0.00 45 1004.5
20260505062922 18 302 8.0 9.7 0.00 0.00 0.00 44 1004.4
20260505062419 18 307 9.7 9.7 0.00 0.00 0.00 43 1004.4
20260505061915 19 314 9.7 11.3 0.00 0.00 0.00 41 1004.5
20260505061414 19 319 14.5 16.1 0.00 0.00 0.00 41 1004.1
20260505060911 18 271 6.4 9.7 0.00 0.00 0.00 42 1004.6
20260505060408 19 325 8.0 9.7 0.00 0.00 0.00 41 1004.3
20260505055904 20 314 6.4 6.4 0.00 0.00 0.00 41 1004.4
20260505055400 19 297 6.4 6.4 0.00 0.00 0.00 40 1004.3
20260505054857 19 320 6.4 9.7 0.00 0.00 0.00 41 1004.3
20260505054354 18 306 8.0 9.7 0.00 0.00 0.00 42 1004.5
20260505053853 18 298 6.4 6.4 0.00 0.00 0.00 43 1004.4
20260505053349 18 297 6.4 6.4 0.00 0.00 0.00 42 1004.2
20260505052846 19 323 6.4 6.4 0.00 0.00 0.00 42 1004.2
20260505052343 20 299 11.3 12.9 0.00 0.00 0.00 40 1004.2
20260505051840 19 319 12.9 12.9 0.00 0.00 0.00 40 1003.9
20260505051337 18 303 8.0 9.7 0.00 0.00 0.00 42 1004.3
20260505050835 18 299 6.4 6.4 0.00 0.00 0.00 46 1004.2
20260505050334 18 289 4.8 4.8 0.00 0.00 0.00 47 1004.3
20260505041301 21 287 9.7 11.3 0.00 0.00 0.00 41 1004.2
20260505040758 21 305 9.7 11.3 0.00 0.00 0.00 40 1004.1
20260505040255 21 298 6.4 6.4 0.00 0.00 0.00 39 1004.1
20260505035752 21 302 6.4 6.4 0.00 0.00 0.00 38 1004.1
20260505035248 22 340 4.8 6.4 0.00 0.00 0.00 37 1003.9
20260505034745 22 317 3.2 4.8 0.00 0.00 0.00 37 1004.1
20260505034242 22 318 4.8 6.4 0.00 0.00 0.00 37 1003.9
20260505033738 22 277 3.2 4.8 0.00 0.00 0.00 37 1003.8
20260505033236 22 336 9.7 9.7 0.00 0.00 0.00 36 1003.7
20260505032734 22 332 4.8 4.8 0.00 0.00 0.00 37 1003.8
20260505032230 23 342 3.2 4.8 0.00 0.00 0.00 36 1003.7
20260505031727 23 339 8.0 11.3 0.00 0.00 0.00 36 1003.5
20260505031223 23 243 1.6 3.2 0.00 0.00 0.00 36 1003.7
20260505030721 23 331 4.8 4.8 0.00 0.00 0.00 36 1003.4
20260505030217 23 39 8.0 11.3 0.00 0.00 0.00 35 1003.5
20260505025713 23 64 3.2 4.8 0.00 0.00 0.00 35 1003.4
20260505025211 24 349 11.3 16.1 0.00 0.00 0.00 35 1003.4
20260505024709 24 25 9.7 11.3 0.00 0.00 0.00 34 1003.3
20260505024205 25 314 8.0 11.3 0.00 0.00 0.00 35 1003.4
20260505023703 25 328 6.4 6.4 0.00 0.00 0.00 34 1003.2
20260505023155 25 346 9.7 11.3 0.00 0.00 0.00 34 1003.1
20260505022652 25 331 6.4 6.4 0.00 0.00 0.00 33 1003.1
20260505022149 25 340 8.0 11.3 0.00 0.00 0.00 33 1003.0
20260505021646 25 15 4.8 4.8 0.00 0.00 0.00 33 1003.1
20260505021142 25 332 11.3 11.3 0.00 0.00 0.00 32 1003.1
20260505020638 26 357 12.9 14.5 0.00 0.00 0.00 32 1003.0
20260505020134 26 329 14.5 20.9 0.00 0.00 0.00 32 1003.2
20260505015632 26 305 12.9 14.5 0.00 0.00 0.00 31 1003.1
20260505015128 26 352 12.9 14.5 0.00 0.00 0.00 31 1003.2
20260505014625 26 356 16.1 17.7 0.00 0.00 0.00 31 1003.3
20260505014122 26 311 12.9 14.5 0.00 0.00 0.00 31 1003.3
20260505013620 26 344 16.1 20.9 0.00 0.00 0.00 31 1003.3
20260505013116 26 340 20.9 24.1 0.00 0.00 0.00 30 1003.3
20260505012614 26 352 22.5 25.7 0.00 0.00 0.00 29 1003.3
20260505012105 26 19 20.9 27.4 0.00 0.00 0.00 29 1003.2
20260505011601 27 342 16.1 17.7 0.00 0.00 0.00 28 1003.4
20260505011058 26 332 6.4 6.4 0.00 0.00 0.00 28 1003.4
20260505010553 26 323 20.9 24.1 0.00 0.00 0.00 29 1003.3
20260505010050 27 349 14.5 17.7 0.00 0.00 0.00 29 1003.4
20260505005546 27 290 8.0 11.3 0.00 0.00 0.00 28 1003.5
20260505005044 27 326 9.7 11.3 0.00 0.00 0.00 26 1003.5
20260505004541 27 319 14.5 17.7 0.00 0.00 0.00 25 1003.5
20260505004038 27 339 12.9 16.1 0.00 0.00 0.00 25 1003.8
20260505003535 27 28 8.0 9.7 0.00 0.00 0.00 25 1003.9
20260505003032 27 351 9.7 14.5 0.00 0.00 0.00 25 1003.7
20260505002532 27 275 9.7 11.3 0.00 0.00 0.00 25 1003.7
20260505002032 27 339 14.5 17.7 0.00 0.00 0.00 24 1003.9
20260505001528 27 78 3.2 4.8 0.00 0.00 0.00 25 1004.0
20260505001025 27 347 14.5 17.7 0.00 0.00 0.00 24 1003.8
20260505000523 27 352 11.3 14.5 0.00 0.00 0.00 24 1004.0
20260505000020 27 328 24.1 29.0 0.00 0.00 0.00 25 1003.9
20260504235517 27 319 14.5 16.1 0.00 0.00 0.00 25 1004.1
20260504235013 27 324 8.0 12.9 0.00 0.00 0.00 26 1004.2
20260504234510 27 310 20.9 25.7 0.00 0.00 0.00 25 1004.2
20260504234007 27 30 9.7 11.3 0.00 0.00 0.00 27 1004.2
20260504233502 27 299 11.3 14.5 0.00 0.00 0.00 27 1004.1
20260504233000 27 348 17.7 22.5 0.00 0.00 0.00 27 1004.2
20260504232457 27 335 25.7 29.0 0.00 0.00 0.00 27 1004.2
20260504231954 27 317 12.9 16.1 0.00 0.00 0.00 28 1004.2
20260504231450 27 5 11.3 16.1 0.00 0.00 0.00 29 1004.4
20260504230947 26 286 8.0 11.3 0.00 0.00 0.00 28 1004.4
20260504230443 27 346 22.5 25.7 0.00 0.00 0.00 28 1004.5
20260504225943 26 325 16.1 22.5 0.00 0.00 0.00 28 1004.5
20260504225439 26 307 12.9 14.5 0.00 0.00 0.00 31 1004.5
20260504224936 26 331 14.5 14.5 0.00 0.00 0.00 30 1004.6
20260504224432 26 1 16.1 20.9 0.00 0.00 0.00 30 1005.0
20260504223930 26 15 16.1 17.7 0.00 0.00 0.00 30 1004.8
20260504223425 26 318 8.0 9.7 0.00 0.00 0.00 29 1005.0
20260504222921 26 334 9.7 11.3 0.00 0.00 0.00 29 1005.0
20260504222419 26 328 14.5 17.7 0.00 0.00 0.00 30 1005.2
20260504221917 26 334 17.7 20.9 0.00 0.00 0.00 30 1005.1
20260504221413 26 0 17.7 20.9 0.00 0.00 0.00 29 1005.2
20260504220910 26 357 16.1 20.9 0.00 0.00 0.00 29 1005.0
20260504220407 26 340 14.5 16.1 0.00 0.00 0.00 30 1005.3
20260504215904 26 337 8.0 11.3 0.00 0.00 0.00 29 1005.5
20260504215401 26 331 17.7 22.5 0.00 0.00 0.00 30 1005.5
20260504214857 25 311 6.4 9.7 0.00 0.00 0.00 30 1005.7
20260504214354 25 351 16.1 17.7 0.00 0.00 0.00 32 1005.8
20260504213850 26 5 4.8 4.8 0.00 0.00 0.00 33 1005.7
20260504213346 25 7 8.0 11.3 0.00 0.00 0.00 33 1005.6
20260504212844 25 191 6.4 9.7 0.00 0.00 0.00 32 1005.8
20260504212340 25 345 12.9 14.5 0.00 0.00 0.00 34 1005.9
20260504211838 25 295 11.3 12.9 0.00 0.00 0.00 35 1005.9
20260504211333 25 308 6.4 6.4 0.00 0.00 0.00 34 1006.3
20260504210831 25 345 9.7 12.9 0.00 0.00 0.00 34 1006.3
20260504210328 25 347 6.4 9.7 0.00 0.00 0.00 35 1006.4
20260504205825 25 61 8.0 12.9 0.00 0.00 0.00 35 1006.5
20260504205323 24 335 8.0 11.3 0.00 0.00 0.00 35 1006.6
20260504204821 24 269 8.0 9.7 0.00 0.00 0.00 36 1006.6
20260504204319 25 300 4.8 4.8 0.00 0.00 0.00 35 1006.6
20260504203818 25 348 9.7 12.9 0.00 0.00 0.00 34 1006.7
20260504203315 24 288 6.4 9.7 0.00 0.00 0.00 35 1006.7
20260504202810 24 340 11.3 12.9 0.00 0.00 0.00 36 1006.7
20260504202308 23 330 11.3 12.9 0.00 0.00 0.00 35 1006.7
20260504201804 24 340 6.4 6.4 0.00 0.00 0.00 34 1007.0
20260504201301 24 345 14.5 16.1 0.00 0.00 0.00 34 1006.8
20260504200759 23 161 1.6 3.2 0.00 0.00 0.00 36 1007.0
20260504200255 23 10 14.5 17.7 0.00 0.00 0.00 33 1007.0
20260504195752 23 291 11.3 12.9 0.00 0.00 0.00 36 1007.0
20260504195247 23 310 17.7 17.7 0.00 0.00 0.00 37 1007.0
20260504194745 23 345 11.3 12.9 0.00 0.00 0.00 36 1007.3
20260504194241 23 294 16.1 17.7 0.00 0.00 0.00 38 1007.2
20260504193737 23 318 11.3 12.9 0.00 0.00 0.00 38 1007.2
20260504193235 22 341 9.7 11.3 0.00 0.00 0.00 36 1007.3
20260504192733 23 285 16.1 17.7 0.00 0.00 0.00 37 1007.3
20260504192231 22 294 19.3 22.5 0.00 0.00 0.00 36 1007.3
20260504191729 22 18 16.1 22.5 0.00 0.00 0.00 37 1007.6
20260504191226 22 340 9.7 17.7 0.00 0.00 0.00 38 1007.7
20260504190721 22 349 8.0 11.3 0.00 0.00 0.00 37 1007.6